Regional Weather Roundup
Issued by NWS

Home | Current Version | Previous Version | Graphics & Text | Print | Product List | Glossary On
Versions: 1 2 3 4 5 6 7 8 9 10 11 12 13 14 15 16 17 18 19 20 21 22 23 24 25 26 27 28 29 30 31 32 33 34 35 36 37 38 39 40 41 42 43 44 45 46 47 48 49 50
000
ASUS43 KMPX 230501
RWRMN
WEATHER ROUNDUP FOR MINNESOTA
NATIONAL WEATHER SERVICE TWIN CITIES/CHANHASSEN MN
1200 AM CDT MON OCT 23 2017


NOTE: "FAIR" INDICATES FEW OR NO CLOUDS BELOW 12,000 FEET WITH NO
SIGNIFICANT WEATHER AND/OR OBSTRUCTIONS TO VISIBILITY. N/A MEANS
CURRENT SKY AND/OR WEATHER CONDITIONS ARE NOT AVAILABLE.

MNZ060>063-068>070-230600-
   Twin Cities Metro

CITY           SKY/WX    TMP DP  RH WIND       PRES   REMARKS
LAKE ELMO      FAIR      52  36  54 S8        29.90S
$$
MNZ001>005-007-008-013>017-022>024-027-028-230600-
   Northwest Minnesota

CITY           SKY/WX    TMP DP  RH WIND       PRES   REMARKS
BEMIDJI        MOCLDY    55  32  42 S12       29.67F
HALLOCK        PTCLDY    46  39  76 SE7       29.55F
ROSEAU         MOCLDY    52  43  71 S8        29.58F
CROOKSTON      MOCLDY    54  32  43 S13       29.60F
FOSSTON        PTCLDY    54  28  37 S15       29.64F
DETROIT LAKES  MOCLDY    55  32  41 S10       29.69F
MAHNOMEN       FAIR      53  33  47 S14       29.66F
$$
MNZ006-009>011-018-025>026-230600-
   North Central Minnesota

CITY           SKY/WX    TMP DP  RH WIND       PRES   REMARKS
INTL FALLS     CLOUDY    55  32  41 S7        29.66F
WASKISH        CLOUDY    55  34  44 S8        29.64F
LONGVILLE      CLOUDY    55  34  44 S9        29.72F
GRAND RAPIDS   CLOUDY    52  35  52 S12       29.75F
CRANE LAKE     CLOUDY    52  30  43 SE5       29.74F
ORR            CLOUDY    52  28  40 S9        29.70F
COOK           CLOUDY    52  32  46 S9G16     29.74F
WALKER         CLOUDY    55  33  42 S8G16     29.70F
$$
MNZ012-019>021-037-230600-
   Northeast Minnesota

CITY           SKY/WX    TMP DP  RH WIND       PRES   REMARKS
DULUTH         CLOUDY    52  32  46 S12       29.82F
TWO HARBORS    PTCLDY    48  39  71 CALM      29.82F
SILVER BAY     CLOUDY    45  39  81 S5        29.82F
G MARAIS ARPRT CLOUDY    46  34  61 S7        29.85F
$$
MNZ029>031-032-039>041-046>048-054>057-064-230600-
   West Central Minnesota

CITY           SKY/WX    TMP DP  RH WIND       PRES   REMARKS
WHEATON        CLOUDY    55  36  47 S13       29.74F
MORRIS         MOCLDY    54  36  50 S9        29.75F
ELBOW LAKE     CLOUDY    55  37  50 S12       29.74F
GLENWOOD       PTCLDY    48  37  66 S5        29.78F
APPLETON       MOCLDY    57  30  35 S6        29.76F
BENSON         PTCLDY    52  36  54 S6        29.79F
WILLMAR        FAIR      54  37  54 SE7       29.81F
$$
MNZ033>034-036-042>043-049>051-058-059-230600-
   Central Minnesota

CITY           SKY/WX    TMP DP  RH WIND       PRES   REMARKS
SAUK CENTRE    FAIR      50  37  61 S9        29.79F
AITKIN         PTCLDY    54  34  47 S10       29.76F
LONG PRAIRIE   FAIR      52  34  50 SE8       29.78F
BUFFALO        CLOUDY    55  32  41 S9        29.85F
MAPLE LAKE     MOCLDY    56  37  48 S8G17     29.84F
$$
MNZ037-044-045-052-053-230600-
   East Central Minnesota

CITY           SKY/WX    TMP DP  RH WIND       PRES   REMARKS
MORA           CLOUDY    54  32  43 S9        29.85F
CAMBRIDGE      CLOUDY    57  37  47 S6        29.85S
MOOSE LAKE     CLOUDY    52  32  46 S6        29.81S
HINCKLEY       CLOUDY    54  36  50 S9        29.84F
CLOQUET        CLOUDY    54  28  37 S8        29.82F
$$
MNZ071>073-080-081-089-090-097-098-230600-
   Southwest Minnesota

CITY           SKY/WX    TMP DP  RH WIND       PRES   REMARKS
GRANITE FALLS  PTCLDY    55  37  52 S13       29.81F
CANBY          CLOUDY    59  31  34 SW8G17    29.79F
MARSHALL       CLOUDY    57  32  38 SW15      29.79F
WORTHINGTON    CLOUDY    52  33  48 S12       29.86F
JACKSON        MOCLDY    52  34  50 S13       29.90F
SLAYTON        PTCLDY    54  31  42 S13       29.85F
$$
MNZ065>067-074>077-082>085-091>093-230600-
   South Central Minnesota

CITY           SKY/WX    TMP DP  RH WIND       PRES   REMARKS
MANKATO        PTCLDY    51  34  52 S7        29.89F
NEW ULM          N/A     52  36  54 S10       29.86F
ST JAMES       PTCLDY    52  36  54 S12       29.88F
FAIRMONT       PTCLDY    47  36  65 S8        29.90F
OWATONNA       PTCLDY    50  36  57 S15G21    29.91F
WASECA         CLOUDY    52  34  50 S9        29.92F
$$
MNZ078>079-086>088-094>096-230600-
   Southeast Minnesota

CITY           SKY/WX    TMP DP  RH WIND       PRES   REMARKS
ROCHESTER      CLEAR     46  41  82 S13       29.96F
RED WING       PTCLDY    52  36  54 CALM      29.92S
AUSTIN         CLEAR     46  39  76 S7        29.95F
$$
ABBREVIATIONS USED IN REMARKS
   TC - TEMPERATURES IN CELSIUS
  WCI - WIND CHILL INDEX
   HX - HEAT INDEX
  VSB - VISIBILITY
$$




USA.gov is the U.S. government's official web portal to all federal, state and local government web resources and services.